datum,uhrzeit_start,uhrzeit_ende,zaehlstelle,richtung_1,richtung_2,gesamt
2017.05.01,00:00:00,00:15:00,Arnulf,1,0,1
2017.05.01,00:15:00,00:30:00,Arnulf,2,0,2
2017.05.01,00:30:00,00:45:00,Arnulf,0,0,0
2017.05.01,00:45:00,01:00:00,Arnulf,1,0,1
2017.05.01,01:00:00,01:15:00,Arnulf,0,1,1
2017.05.01,01:15:00,01:30:00,Arnulf,1,0,1
2017.05.01,01:30:00,01:45:00,Arnulf,1,0,1
2017.05.01,01:45:00,02:00:00,Arnulf,0,0,0
2017.05.01,02:00:00,02:15:00,Arnulf,0,0,0
2017.05.01,02:15:00,02:30:00,Arnulf,1,0,1
2017.05.01,02:30:00,02:45:00,Arnulf,2,0,2
2017.05.01,02:45:00,03:00:00,Arnulf,0,0,0
2017.05.01,03:00:00,03:15:00,Arnulf,2,0,2
2017.05.01,03:15:00,03:30:00,Arnulf,0,0,0
2017.05.01,03:30:00,03:45:00,Arnulf,0,0,0
2017.05.01,03:45:00,04:00:00,Arnulf,1,0,1
2017.05.01,04:00:00,04:15:00,Arnulf,0,0,0
2017.05.01,04:15:00,04:30:00,Arnulf,0,0,0
2017.05.01,04:30:00,04:45:00,Arnulf,0,0,0
2017.05.01,04:45:00,05:00:00,Arnulf,0,0,0
2017.05.01,05:00:00,05:15:00,Arnulf,0,0,0
2017.05.01,05:15:00,05:30:00,Arnulf,1,0,1
2017.05.01,05:30:00,05:45:00,Arnulf,1,0,1
2017.05.01,05:45:00,06:00:00,Arnulf,0,0,0
2017.05.01,06:00:00,06:15:00,Arnulf,1,0,1
2017.05.01,06:15:00,06:30:00,Arnulf,3,0,3
2017.05.01,06:30:00,06:45:00,Arnulf,3,0,3
2017.05.01,06:45:00,07:00:00,Arnulf,1,1,2
2017.05.01,07:00:00,07:15:00,Arnulf,1,0,1
2017.05.01,07:15:00,07:30:00,Arnulf,2,0,2
2017.05.01,07:30:00,07:45:00,Arnulf,2,0,2
2017.05.01,07:45:00,08:00:00,Arnulf,0,1,1
2017.05.01,08:00:00,08:15:00,Arnulf,5,0,5
2017.05.01,08:15:00,08:30:00,Arnulf,3,0,3
2017.05.01,08:30:00,08:45:00,Arnulf,1,0,1
2017.05.01,08:45:00,09:00:00,Arnulf,4,0,4
2017.05.01,09:00:00,09:15:00,Arnulf,5,0,5
2017.05.01,09:15:00,09:30:00,Arnulf,5,0,5
2017.05.01,09:30:00,09:45:00,Arnulf,12,0,12
2017.05.01,09:45:00,10:00:00,Arnulf,7,0,7
2017.05.01,10:00:00,10:15:00,Arnulf,4,0,4
2017.05.01,10:15:00,10:30:00,Arnulf,9,0,9
2017.05.01,10:30:00,10:45:00,Arnulf,9,1,10
2017.05.01,10:45:00,11:00:00,Arnulf,15,0,15
2017.05.01,11:00:00,11:15:00,Arnulf,10,0,10
2017.05.01,11:15:00,11:30:00,Arnulf,12,0,12
2017.05.01,11:30:00,11:45:00,Arnulf,10,0,10
2017.05.01,11:45:00,12:00:00,Arnulf,14,0,14
2017.05.01,12:00:00,12:15:00,Arnulf,15,1,16
2017.05.01,12:15:00,12:30:00,Arnulf,10,0,10
2017.05.01,12:30:00,12:45:00,Arnulf,22,0,22
2017.05.01,12:45:00,13:00:00,Arnulf,6,0,6
2017.05.01,13:00:00,13:15:00,Arnulf,14,0,14
2017.05.01,13:15:00,13:30:00,Arnulf,10,0,10
2017.05.01,13:30:00,13:45:00,Arnulf,12,0,12
2017.05.01,13:45:00,14:00:00,Arnulf,11,0,11
2017.05.01,14:00:00,14:15:00,Arnulf,6,0,6
2017.05.01,14:15:00,14:30:00,Arnulf,12,0,12
2017.05.01,14:30:00,14:45:00,Arnulf,7,0,7
2017.05.01,14:45:00,15:00:00,Arnulf,10,2,12
2017.05.01,15:00:00,15:15:00,Arnulf,7,2,9
2017.05.01,15:15:00,15:30:00,Arnulf,3,0,3
2017.05.01,15:30:00,15:45:00,Arnulf,3,3,6
2017.05.01,15:45:00,16:00:00,Arnulf,1,3,4
2017.05.01,16:00:00,16:15:00,Arnulf,1,0,1
2017.05.01,16:15:00,16:30:00,Arnulf,1,1,2
2017.05.01,16:30:00,16:45:00,Arnulf,8,0,8
2017.05.01,16:45:00,17:00:00,Arnulf,3,0,3
2017.05.01,17:00:00,17:15:00,Arnulf,6,0,6
2017.05.01,17:15:00,17:30:00,Arnulf,1,0,1
2017.05.01,17:30:00,17:45:00,Arnulf,4,0,4
2017.05.01,17:45:00,18:00:00,Arnulf,2,0,2
2017.05.01,18:00:00,18:15:00,Arnulf,3,1,4
2017.05.01,18:15:00,18:30:00,Arnulf,3,0,3
2017.05.01,18:30:00,18:45:00,Arnulf,1,0,1
2017.05.01,18:45:00,19:00:00,Arnulf,1,0,1
2017.05.01,19:00:00,19:15:00,Arnulf,1,1,2
2017.05.01,19:15:00,19:30:00,Arnulf,2,0,2
2017.05.01,19:30:00,19:45:00,Arnulf,1,0,1
2017.05.01,19:45:00,20:00:00,Arnulf,1,0,1
2017.05.01,20:00:00,20:15:00,Arnulf,0,0,0
2017.05.01,20:15:00,20:30:00,Arnulf,5,0,5
2017.05.01,20:30:00,20:45:00,Arnulf,2,0,2
2017.05.01,20:45:00,21:00:00,Arnulf,1,0,1
2017.05.01,21:00:00,21:15:00,Arnulf,2,0,2
2017.05.01,21:15:00,21:30:00,Arnulf,0,1,1
2017.05.01,21:30:00,21:45:00,Arnulf,2,0,2
2017.05.01,21:45:00,22:00:00,Arnulf,2,0,2
2017.05.01,22:00:00,22:15:00,Arnulf,0,0,0
2017.05.01,22:15:00,22:30:00,Arnulf,2,0,2
2017.05.01,22:30:00,22:45:00,Arnulf,2,0,2
2017.05.01,22:45:00,23:00:00,Arnulf,0,0,0
2017.05.01,23:00:00,23:15:00,Arnulf,0,0,0
2017.05.01,23:15:00,23:30:00,Arnulf,2,0,2
2017.05.01,23:30:00,23:45:00,Arnulf,0,0,0
2017.05.01,23:45:00,00:00:00,Arnulf,1,0,1
2017.05.02,00:00:00,00:15:00,Arnulf,3,0,3
2017.05.02,00:15:00,00:30:00,Arnulf,0,0,0
2017.05.02,00:30:00,00:45:00,Arnulf,0,0,0
2017.05.02,00:45:00,01:00:00,Arnulf,0,0,0
2017.05.02,01:00:00,01:15:00,Arnulf,0,0,0
2017.05.02,01:15:00,01:30:00,Arnulf,0,0,0
2017.05.02,01:30:00,01:45:00,Arnulf,0,0,0
2017.05.02,01:45:00,02:00:00,Arnulf,0,0,0
2017.05.02,02:00:00,02:15:00,Arnulf,0,0,0
2017.05.02,02:15:00,02:30:00,Arnulf,0,0,0
2017.05.02,02:30:00,02:45:00,Arnulf,2,0,2
2017.05.02,02:45:00,03:00:00,Arnulf,1,0,1
2017.05.02,03:00:00,03:15:00,Arnulf,0,0,0
2017.05.02,03:15:00,03:30:00,Arnulf,0,0,0
2017.05.02,03:30:00,03:45:00,Arnulf,0,0,0
2017.05.02,03:45:00,04:00:00,Arnulf,0,0,0
2017.05.02,04:00:00,04:15:00,Arnulf,0,0,0
2017.05.02,04:15:00,04:30:00,Arnulf,1,0,1
2017.05.02,04:30:00,04:45:00,Arnulf,1,0,1
2017.05.02,04:45:00,05:00:00,Arnulf,0,0,0
2017.05.02,05:00:00,05:15:00,Arnulf,0,0,0
2017.05.02,05:15:00,05:30:00,Arnulf,2,0,2
2017.05.02,05:30:00,05:45:00,Arnulf,5,0,5
2017.05.02,05:45:00,06:00:00,Arnulf,4,0,4
2017.05.02,06:00:00,06:15:00,Arnulf,4,0,4
2017.05.02,06:15:00,06:30:00,Arnulf,5,2,7
2017.05.02,06:30:00,06:45:00,Arnulf,7,1,8
2017.05.02,06:45:00,07:00:00,Arnulf,10,1,11
2017.05.02,07:00:00,07:15:00,Arnulf,14,1,15
2017.05.02,07:15:00,07:30:00,Arnulf,22,1,23
2017.05.02,07:30:00,07:45:00,Arnulf,17,4,21
2017.05.02,07:45:00,08:00:00,Arnulf,32,4,36
2017.05.02,08:00:00,08:15:00,Arnulf,39,1,40
2017.05.02,08:15:00,08:30:00,Arnulf,39,4,43
2017.05.02,08:30:00,08:45:00,Arnulf,35,2,37
2017.05.02,08:45:00,09:00:00,Arnulf,43,1,44
2017.05.02,09:00:00,09:15:00,Arnulf,33,3,36
2017.05.02,09:15:00,09:30:00,Arnulf,12,1,13
2017.05.02,09:30:00,09:45:00,Arnulf,16,4,20
2017.05.02,09:45:00,10:00:00,Arnulf,10,3,13
2017.05.02,10:00:00,10:15:00,Arnulf,13,1,14
2017.05.02,10:15:00,10:30:00,Arnulf,13,2,15
2017.05.02,10:30:00,10:45:00,Arnulf,10,0,10
2017.05.02,10:45:00,11:00:00,Arnulf,10,1,11
2017.05.02,11:00:00,11:15:00,Arnulf,10,3,13
2017.05.02,11:15:00,11:30:00,Arnulf,13,0,13
2017.05.02,11:30:00,11:45:00,Arnulf,13,1,14
2017.05.02,11:45:00,12:00:00,Arnulf,12,2,14
2017.05.02,12:00:00,12:15:00,Arnulf,19,1,20
2017.05.02,12:15:00,12:30:00,Arnulf,6,1,7
2017.05.02,12:30:00,12:45:00,Arnulf,10,1,11
2017.05.02,12:45:00,13:00:00,Arnulf,10,2,12
2017.05.02,13:00:00,13:15:00,Arnulf,13,2,15
2017.05.02,13:15:00,13:30:00,Arnulf,9,1,10
2017.05.02,13:30:00,13:45:00,Arnulf,7,1,8
2017.05.02,13:45:00,14:00:00,Arnulf,12,0,12
2017.05.02,14:00:00,14:15:00,Arnulf,9,0,9
2017.05.02,14:15:00,14:30:00,Arnulf,13,1,14
2017.05.02,14:30:00,14:45:00,Arnulf,14,1,15
2017.05.02,14:45:00,15:00:00,Arnulf,13,1,14
2017.05.02,15:00:00,15:15:00,Arnulf,11,0,11
2017.05.02,15:15:00,15:30:00,Arnulf,14,0,14
2017.05.02,15:30:00,15:45:00,Arnulf,17,1,18
2017.05.02,15:45:00,16:00:00,Arnulf,13,0,13
2017.05.02,16:00:00,16:15:00,Arnulf,10,2,12
2017.05.02,16:15:00,16:30:00,Arnulf,19,1,20
2017.05.02,16:30:00,16:45:00,Arnulf,21,2,23
2017.05.02,16:45:00,17:00:00,Arnulf,23,1,24
2017.05.02,17:00:00,17:15:00,Arnulf,17,0,17
2017.05.02,17:15:00,17:30:00,Arnulf,25,2,27
2017.05.02,17:30:00,17:45:00,Arnulf,29,2,31
2017.05.02,17:45:00,18:00:00,Arnulf,27,3,30
2017.05.02,18:00:00,18:15:00,Arnulf,26,0,26
2017.05.02,18:15:00,18:30:00,Arnulf,32,1,33
2017.05.02,18:30:00,18:45:00,Arnulf,42,3,45
2017.05.02,18:45:00,19:00:00,Arnulf,21,1,22
2017.05.02,19:00:00,19:15:00,Arnulf,27,3,30
2017.05.02,19:15:00,19:30:00,Arnulf,26,1,27
2017.05.02,19:30:00,19:45:00,Arnulf,12,0,12
2017.05.02,19:45:00,20:00:00,Arnulf,13,1,14
2017.05.02,20:00:00,20:15:00,Arnulf,13,1,14
2017.05.02,20:15:00,20:30:00,Arnulf,10,0,10
2017.05.02,20:30:00,20:45:00,Arnulf,11,2,13
2017.05.02,20:45:00,21:00:00,Arnulf,1,0,1
2017.05.02,21:00:00,21:15:00,Arnulf,6,1,7
2017.05.02,21:15:00,21:30:00,Arnulf,2,1,3
2017.05.02,21:30:00,21:45:00,Arnulf,3,0,3
2017.05.02,21:45:00,22:00:00,Arnulf,8,0,8
2017.05.02,22:00:00,22:15:00,Arnulf,3,0,3
2017.05.02,22:15:00,22:30:00,Arnulf,2,0,2
2017.05.02,22:30:00,22:45:00,Arnulf,8,1,9
2017.05.02,22:45:00,23:00:00,Arnulf,2,0,2
2017.05.02,23:00:00,23:15:00,Arnulf,8,0,8
2017.05.02,23:15:00,23:30:00,Arnulf,0,0,0
2017.05.02,23:30:00,23:45:00,Arnulf,2,0,2
2017.05.02,23:45:00,00:00:00,Arnulf,2,0,2
2017.05.03,00:00:00,00:15:00,Arnulf,6,0,6
2017.05.03,00:15:00,00:30:00,Arnulf,0,0,0
2017.05.03,00:30:00,00:45:00,Arnulf,0,0,0
2017.05.03,00:45:00,01:00:00,Arnulf,0,0,0
2017.05.03,01:00:00,01:15:00,Arnulf,0,0,0
2017.05.03,01:15:00,01:30:00,Arnulf,0,0,0
2017.05.03,01:30:00,01:45:00,Arnulf,0,0,0
2017.05.03,01:45:00,02:00:00,Arnulf,1,0,1
2017.05.03,02:00:00,02:15:00,Arnulf,0,0,0
2017.05.03,02:15:00,02:30:00,Arnulf,0,0,0
2017.05.03,02:30:00,02:45:00,Arnulf,0,0,0
2017.05.03,02:45:00,03:00:00,Arnulf,1,0,1
2017.05.03,03:00:00,03:15:00,Arnulf,1,0,1
2017.05.03,03:15:00,03:30:00,Arnulf,0,0,0
2017.05.03,03:30:00,03:45:00,Arnulf,0,0,0
2017.05.03,03:45:00,04:00:00,Arnulf,0,0,0
2017.05.03,04:00:00,04:15:00,Arnulf,0,0,0
2017.05.03,04:15:00,04:30:00,Arnulf,1,0,1
2017.05.03,04:30:00,04:45:00,Arnulf,1,0,1
2017.05.03,04:45:00,05:00:00,Arnulf,0,0,0
2017.05.03,05:00:00,05:15:00,Arnulf,2,0,2
2017.05.03,05:15:00,05:30:00,Arnulf,2,0,2
2017.05.03,05:30:00,05:45:00,Arnulf,4,0,4
2017.05.03,05:45:00,06:00:00,Arnulf,9,1,10
2017.05.03,06:00:00,06:15:00,Arnulf,3,0,3
2017.05.03,06:15:00,06:30:00,Arnulf,4,1,5
2017.05.03,06:30:00,06:45:00,Arnulf,12,2,14
2017.05.03,06:45:00,07:00:00,Arnulf,9,2,11
2017.05.03,07:00:00,07:15:00,Arnulf,17,1,18
2017.05.03,07:15:00,07:30:00,Arnulf,26,1,27
2017.05.03,07:30:00,07:45:00,Arnulf,29,2,31
2017.05.03,07:45:00,08:00:00,Arnulf,49,4,53
2017.05.03,08:00:00,08:15:00,Arnulf,48,0,48
2017.05.03,08:15:00,08:30:00,Arnulf,47,6,53
2017.05.03,08:30:00,08:45:00,Arnulf,52,5,57
2017.05.03,08:45:00,09:00:00,Arnulf,33,4,37
2017.05.03,09:00:00,09:15:00,Arnulf,23,2,25
2017.05.03,09:15:00,09:30:00,Arnulf,26,0,26
2017.05.03,09:30:00,09:45:00,Arnulf,17,1,18
2017.05.03,09:45:00,10:00:00,Arnulf,20,1,21
2017.05.03,10:00:00,10:15:00,Arnulf,10,1,11
2017.05.03,10:15:00,10:30:00,Arnulf,14,1,15
2017.05.03,10:30:00,10:45:00,Arnulf,7,0,7
2017.05.03,10:45:00,11:00:00,Arnulf,10,4,14
2017.05.03,11:00:00,11:15:00,Arnulf,14,2,16
2017.05.03,11:15:00,11:30:00,Arnulf,12,1,13
2017.05.03,11:30:00,11:45:00,Arnulf,10,1,11
2017.05.03,11:45:00,12:00:00,Arnulf,14,0,14
2017.05.03,12:00:00,12:15:00,Arnulf,19,0,19
2017.05.03,12:15:00,12:30:00,Arnulf,13,2,15
2017.05.03,12:30:00,12:45:00,Arnulf,23,1,24
2017.05.03,12:45:00,13:00:00,Arnulf,19,0,19
2017.05.03,13:00:00,13:15:00,Arnulf,13,1,14
2017.05.03,13:15:00,13:30:00,Arnulf,9,3,12
2017.05.03,13:30:00,13:45:00,Arnulf,12,0,12
2017.05.03,13:45:00,14:00:00,Arnulf,5,5,10
2017.05.03,14:00:00,14:15:00,Arnulf,11,0,11
2017.05.03,14:15:00,14:30:00,Arnulf,17,1,18
2017.05.03,14:30:00,14:45:00,Arnulf,11,1,12
2017.05.03,14:45:00,15:00:00,Arnulf,14,1,15
2017.05.03,15:00:00,15:15:00,Arnulf,11,2,13
2017.05.03,15:15:00,15:30:00,Arnulf,14,0,14
2017.05.03,15:30:00,15:45:00,Arnulf,20,0,20
2017.05.03,15:45:00,16:00:00,Arnulf,23,1,24
2017.05.03,16:00:00,16:15:00,Arnulf,17,2,19
2017.05.03,16:15:00,16:30:00,Arnulf,21,2,23
2017.05.03,16:30:00,16:45:00,Arnulf,34,4,38
2017.05.03,16:45:00,17:00:00,Arnulf,12,1,13
2017.05.03,17:00:00,17:15:00,Arnulf,37,1,38
2017.05.03,17:15:00,17:30:00,Arnulf,30,2,32
2017.05.03,17:30:00,17:45:00,Arnulf,37,0,37
2017.05.03,17:45:00,18:00:00,Arnulf,50,2,52
2017.05.03,18:00:00,18:15:00,Arnulf,40,2,42
2017.05.03,18:15:00,18:30:00,Arnulf,35,1,36
2017.05.03,18:30:00,18:45:00,Arnulf,34,1,35
2017.05.03,18:45:00,19:00:00,Arnulf,30,3,33
2017.05.03,19:00:00,19:15:00,Arnulf,32,1,33
2017.05.03,19:15:00,19:30:00,Arnulf,16,3,19
2017.05.03,19:30:00,19:45:00,Arnulf,13,3,16
2017.05.03,19:45:00,20:00:00,Arnulf,12,3,15
2017.05.03,20:00:00,20:15:00,Arnulf,10,1,11
2017.05.03,20:15:00,20:30:00,Arnulf,15,1,16
2017.05.03,20:30:00,20:45:00,Arnulf,4,2,6
2017.05.03,20:45:00,21:00:00,Arnulf,9,1,10
2017.05.03,21:00:00,21:15:00,Arnulf,6,0,6
2017.05.03,21:15:00,21:30:00,Arnulf,5,1,6
2017.05.03,21:30:00,21:45:00,Arnulf,6,2,8
2017.05.03,21:45:00,22:00:00,Arnulf,3,1,4
2017.05.03,22:00:00,22:15:00,Arnulf,1,1,2
2017.05.03,22:15:00,22:30:00,Arnulf,8,0,8
2017.05.03,22:30:00,22:45:00,Arnulf,7,0,7
2017.05.03,22:45:00,23:00:00,Arnulf,6,0,6
2017.05.03,23:00:00,23:15:00,Arnulf,0,0,0
2017.05.03,23:15:00,23:30:00,Arnulf,2,1,3
2017.05.03,23:30:00,23:45:00,Arnulf,2,0,2
2017.05.03,23:45:00,00:00:00,Arnulf,1,0,1
2017.05.04,00:00:00,00:15:00,Arnulf,0,0,0
2017.05.04,00:15:00,00:30:00,Arnulf,1,0,1
2017.05.04,00:30:00,00:45:00,Arnulf,0,0,0
2017.05.04,00:45:00,01:00:00,Arnulf,1,0,1
2017.05.04,01:00:00,01:15:00,Arnulf,0,0,0
2017.05.04,01:15:00,01:30:00,Arnulf,0,0,0
2017.05.04,01:30:00,01:45:00,Arnulf,0,0,0
2017.05.04,01:45:00,02:00:00,Arnulf,1,0,1
2017.05.04,02:00:00,02:15:00,Arnulf,0,0,0
2017.05.04,02:15:00,02:30:00,Arnulf,0,0,0
2017.05.04,02:30:00,02:45:00,Arnulf,1,0,1
2017.05.04,02:45:00,03:00:00,Arnulf,0,0,0
2017.05.04,03:00:00,03:15:00,Arnulf,0,0,0
2017.05.04,03:15:00,03:30:00,Arnulf,0,0,0
2017.05.04,03:30:00,03:45:00,Arnulf,1,0,1
2017.05.04,03:45:00,04:00:00,Arnulf,0,0,0
2017.05.04,04:00:00,04:15:00,Arnulf,0,0,0
2017.05.04,04:15:00,04:30:00,Arnulf,0,0,0
2017.05.04,04:30:00,04:45:00,Arnulf,0,0,0
2017.05.04,04:45:00,05:00:00,Arnulf,0,1,1
2017.05.04,05:00:00,05:15:00,Arnulf,1,0,1
2017.05.04,05:15:00,05:30:00,Arnulf,2,2,4
2017.05.04,05:30:00,05:45:00,Arnulf,4,0,4
2017.05.04,05:45:00,06:00:00,Arnulf,6,1,7
2017.05.04,06:00:00,06:15:00,Arnulf,4,0,4
2017.05.04,06:15:00,06:30:00,Arnulf,6,1,7
2017.05.04,06:30:00,06:45:00,Arnulf,20,0,20
2017.05.04,06:45:00,07:00:00,Arnulf,15,1,16
2017.05.04,07:00:00,07:15:00,Arnulf,15,3,18
2017.05.04,07:15:00,07:30:00,Arnulf,26,1,27
2017.05.04,07:30:00,07:45:00,Arnulf,29,3,32
2017.05.04,07:45:00,08:00:00,Arnulf,47,2,49
2017.05.04,08:00:00,08:15:00,Arnulf,42,2,44
2017.05.04,08:15:00,08:30:00,Arnulf,39,2,41
2017.05.04,08:30:00,08:45:00,Arnulf,56,3,59
2017.05.04,08:45:00,09:00:00,Arnulf,42,7,49
2017.05.04,09:00:00,09:15:00,Arnulf,32,2,34
2017.05.04,09:15:00,09:30:00,Arnulf,18,2,20
2017.05.04,09:30:00,09:45:00,Arnulf,20,0,20
2017.05.04,09:45:00,10:00:00,Arnulf,20,3,23
2017.05.04,10:00:00,10:15:00,Arnulf,18,0,18
2017.05.04,10:15:00,10:30:00,Arnulf,6,2,8
2017.05.04,10:30:00,10:45:00,Arnulf,9,0,9
2017.05.04,10:45:00,11:00:00,Arnulf,15,2,17
2017.05.04,11:00:00,11:15:00,Arnulf,17,2,19
2017.05.04,11:15:00,11:30:00,Arnulf,15,1,16
2017.05.04,11:30:00,11:45:00,Arnulf,16,0,16
2017.05.04,11:45:00,12:00:00,Arnulf,21,1,22
2017.05.04,12:00:00,12:15:00,Arnulf,22,2,24
2017.05.04,12:15:00,12:30:00,Arnulf,19,0,19
2017.05.04,12:30:00,12:45:00,Arnulf,6,0,6
2017.05.04,12:45:00,13:00:00,Arnulf,21,1,22
2017.05.04,13:00:00,13:15:00,Arnulf,13,1,14
2017.05.04,13:15:00,13:30:00,Arnulf,12,0,12
2017.05.04,13:30:00,13:45:00,Arnulf,14,0,14
2017.05.04,13:45:00,14:00:00,Arnulf,11,2,13
2017.05.04,14:00:00,14:15:00,Arnulf,18,1,19
2017.05.04,14:15:00,14:30:00,Arnulf,16,0,16
2017.05.04,14:30:00,14:45:00,Arnulf,10,2,12
2017.05.04,14:45:00,15:00:00,Arnulf,9,1,10
2017.05.04,15:00:00,15:15:00,Arnulf,11,2,13
2017.05.04,15:15:00,15:30:00,Arnulf,8,2,10
2017.05.04,15:30:00,15:45:00,Arnulf,11,2,13
2017.05.04,15:45:00,16:00:00,Arnulf,18,1,19
2017.05.04,16:00:00,16:15:00,Arnulf,28,1,29
2017.05.04,16:15:00,16:30:00,Arnulf,22,1,23
2017.05.04,16:30:00,16:45:00,Arnulf,17,1,18
2017.05.04,16:45:00,17:00:00,Arnulf,25,2,27
2017.05.04,17:00:00,17:15:00,Arnulf,32,0,32
2017.05.04,17:15:00,17:30:00,Arnulf,21,3,24
2017.05.04,17:30:00,17:45:00,Arnulf,37,4,41
2017.05.04,17:45:00,18:00:00,Arnulf,31,0,31
2017.05.04,18:00:00,18:15:00,Arnulf,25,0,25
2017.05.04,18:15:00,18:30:00,Arnulf,31,1,32
2017.05.04,18:30:00,18:45:00,Arnulf,35,3,38
2017.05.04,18:45:00,19:00:00,Arnulf,27,0,27
2017.05.04,19:00:00,19:15:00,Arnulf,17,1,18
2017.05.04,19:15:00,19:30:00,Arnulf,17,1,18
2017.05.04,19:30:00,19:45:00,Arnulf,6,1,7
2017.05.04,19:45:00,20:00:00,Arnulf,8,0,8
2017.05.04,20:00:00,20:15:00,Arnulf,9,0,9
2017.05.04,20:15:00,20:30:00,Arnulf,7,0,7
2017.05.04,20:30:00,20:45:00,Arnulf,6,1,7
2017.05.04,20:45:00,21:00:00,Arnulf,10,1,11
2017.05.04,21:00:00,21:15:00,Arnulf,4,0,4
2017.05.04,21:15:00,21:30:00,Arnulf,4,1,5
2017.05.04,21:30:00,21:45:00,Arnulf,2,0,2
2017.05.04,21:45:00,22:00:00,Arnulf,6,1,7
2017.05.04,22:00:00,22:15:00,Arnulf,3,0,3
2017.05.04,22:15:00,22:30:00,Arnulf,4,0,4
2017.05.04,22:30:00,22:45:00,Arnulf,2,0,2
2017.05.04,22:45:00,23:00:00,Arnulf,4,2,6
2017.05.04,23:00:00,23:15:00,Arnulf,4,1,5
2017.05.04,23:15:00,23:30:00,Arnulf,2,0,2
2017.05.04,23:30:00,23:45:00,Arnulf,1,0,1
2017.05.04,23:45:00,00:00:00,Arnulf,1,0,1
2017.05.05,00:00:00,00:15:00,Arnulf,0,0,0
2017.05.05,00:15:00,00:30:00,Arnulf,0,0,0
2017.05.05,00:30:00,00:45:00,Arnulf,0,0,0
2017.05.05,00:45:00,01:00:00,Arnulf,0,0,0
2017.05.05,01:00:00,01:15:00,Arnulf,0,0,0
2017.05.05,01:15:00,01:30:00,Arnulf,0,0,0
2017.05.05,01:30:00,01:45:00,Arnulf,0,0,0
2017.05.05,01:45:00,02:00:00,Arnulf,0,0,0
2017.05.05,02:00:00,02:15:00,Arnulf,0,0,0
2017.05.05,02:15:00,02:30:00,Arnulf,0,0,0
2017.05.05,02:30:00,02:45:00,Arnulf,1,0,1
2017.05.05,02:45:00,03:00:00,Arnulf,1,0,1
2017.05.05,03:00:00,03:15:00,Arnulf,0,0,0
2017.05.05,03:15:00,03:30:00,Arnulf,0,0,0
2017.05.05,03:30:00,03:45:00,Arnulf,1,0,1
2017.05.05,03:45:00,04:00:00,Arnulf,0,0,0
2017.05.05,04:00:00,04:15:00,Arnulf,0,0,0
2017.05.05,04:15:00,04:30:00,Arnulf,1,0,1
2017.05.05,04:30:00,04:45:00,Arnulf,0,0,0
2017.05.05,04:45:00,05:00:00,Arnulf,0,0,0
2017.05.05,05:00:00,05:15:00,Arnulf,0,0,0
2017.05.05,05:15:00,05:30:00,Arnulf,1,0,1
2017.05.05,05:30:00,05:45:00,Arnulf,3,2,5
2017.05.05,05:45:00,06:00:00,Arnulf,5,0,5
2017.05.05,06:00:00,06:15:00,Arnulf,6,0,6
2017.05.05,06:15:00,06:30:00,Arnulf,5,1,6
2017.05.05,06:30:00,06:45:00,Arnulf,15,0,15
2017.05.05,06:45:00,07:00:00,Arnulf,6,0,6
2017.05.05,07:00:00,07:15:00,Arnulf,14,1,15
2017.05.05,07:15:00,07:30:00,Arnulf,26,1,27
2017.05.05,07:30:00,07:45:00,Arnulf,21,2,23
2017.05.05,07:45:00,08:00:00,Arnulf,33,1,34
2017.05.05,08:00:00,08:15:00,Arnulf,30,0,30
2017.05.05,08:15:00,08:30:00,Arnulf,34,1,35
2017.05.05,08:30:00,08:45:00,Arnulf,43,3,46
2017.05.05,08:45:00,09:00:00,Arnulf,32,4,36
2017.05.05,09:00:00,09:15:00,Arnulf,26,0,26
2017.05.05,09:15:00,09:30:00,Arnulf,22,1,23
2017.05.05,09:30:00,09:45:00,Arnulf,17,1,18
2017.05.05,09:45:00,10:00:00,Arnulf,17,3,20
2017.05.05,10:00:00,10:15:00,Arnulf,15,1,16
2017.05.05,10:15:00,10:30:00,Arnulf,9,0,9
2017.05.05,10:30:00,10:45:00,Arnulf,14,1,15
2017.05.05,10:45:00,11:00:00,Arnulf,4,0,4
2017.05.05,11:00:00,11:15:00,Arnulf,7,1,8
2017.05.05,11:15:00,11:30:00,Arnulf,8,0,8
2017.05.05,11:30:00,11:45:00,Arnulf,10,2,12
2017.05.05,11:45:00,12:00:00,Arnulf,12,2,14
2017.05.05,12:00:00,12:15:00,Arnulf,10,1,11
2017.05.05,12:15:00,12:30:00,Arnulf,19,1,20
2017.05.05,12:30:00,12:45:00,Arnulf,20,0,20
2017.05.05,12:45:00,13:00:00,Arnulf,12,0,12
2017.05.05,13:00:00,13:15:00,Arnulf,11,1,12
2017.05.05,13:15:00,13:30:00,Arnulf,15,2,17
2017.05.05,13:30:00,13:45:00,Arnulf,14,2,16
2017.05.05,13:45:00,14:00:00,Arnulf,15,0,15
2017.05.05,14:00:00,14:15:00,Arnulf,9,2,11
2017.05.05,14:15:00,14:30:00,Arnulf,20,0,20
2017.05.05,14:30:00,14:45:00,Arnulf,9,5,14
2017.05.05,14:45:00,15:00:00,Arnulf,18,1,19
2017.05.05,15:00:00,15:15:00,Arnulf,17,0,17
2017.05.05,15:15:00,15:30:00,Arnulf,18,1,19
2017.05.05,15:30:00,15:45:00,Arnulf,18,2,20
2017.05.05,15:45:00,16:00:00,Arnulf,31,1,32
2017.05.05,16:00:00,16:15:00,Arnulf,27,2,29
2017.05.05,16:15:00,16:30:00,Arnulf,28,4,32
2017.05.05,16:30:00,16:45:00,Arnulf,30,0,30
2017.05.05,16:45:00,17:00:00,Arnulf,27,1,28
2017.05.05,17:00:00,17:15:00,Arnulf,39,1,40
2017.05.05,17:15:00,17:30:00,Arnulf,39,3,42
2017.05.05,17:30:00,17:45:00,Arnulf,33,6,39
2017.05.05,17:45:00,18:00:00,Arnulf,29,2,31
2017.05.05,18:00:00,18:15:00,Arnulf,23,4,27
2017.05.05,18:15:00,18:30:00,Arnulf,23,1,24
2017.05.05,18:30:00,18:45:00,Arnulf,14,2,16
2017.05.05,18:45:00,19:00:00,Arnulf,18,2,20
2017.05.05,19:00:00,19:15:00,Arnulf,18,2,20
2017.05.05,19:15:00,19:30:00,Arnulf,18,0,18
2017.05.05,19:30:00,19:45:00,Arnulf,12,1,13
2017.05.05,19:45:00,20:00:00,Arnulf,17,0,17
2017.05.05,20:00:00,20:15:00,Arnulf,9,2,11
2017.05.05,20:15:00,20:30:00,Arnulf,11,1,12
2017.05.05,20:30:00,20:45:00,Arnulf,5,2,7
2017.05.05,20:45:00,21:00:00,Arnulf,12,0,12
2017.05.05,21:00:00,21:15:00,Arnulf,11,2,13
2017.05.05,21:15:00,21:30:00,Arnulf,8,2,10
2017.05.05,21:30:00,21:45:00,Arnulf,7,0,7
2017.05.05,21:45:00,22:00:00,Arnulf,11,1,12
2017.05.05,22:00:00,22:15:00,Arnulf,4,0,4
2017.05.05,22:15:00,22:30:00,Arnulf,2,1,3
2017.05.05,22:30:00,22:45:00,Arnulf,4,0,4
2017.05.05,22:45:00,23:00:00,Arnulf,8,1,9
2017.05.05,23:00:00,23:15:00,Arnulf,11,0,11
2017.05.05,23:15:00,23:30:00,Arnulf,5,0,5
2017.05.05,23:30:00,23:45:00,Arnulf,3,0,3
2017.05.05,23:45:00,00:00:00,Arnulf,1,0,1
2017.05.06,00:00:00,00:15:00,Arnulf,0,2,2
2017.05.06,00:15:00,00:30:00,Arnulf,1,0,1
2017.05.06,00:30:00,00:45:00,Arnulf,1,0,1
2017.05.06,00:45:00,01:00:00,Arnulf,0,1,1
2017.05.06,01:00:00,01:15:00,Arnulf,2,0,2
2017.05.06,01:15:00,01:30:00,Arnulf,0,0,0
2017.05.06,01:30:00,01:45:00,Arnulf,2,0,2
2017.05.06,01:45:00,02:00:00,Arnulf,0,0,0
2017.05.06,02:00:00,02:15:00,Arnulf,1,0,1
2017.05.06,02:15:00,02:30:00,Arnulf,1,0,1
2017.05.06,02:30:00,02:45:00,Arnulf,0,0,0
2017.05.06,02:45:00,03:00:00,Arnulf,0,0,0
2017.05.06,03:00:00,03:15:00,Arnulf,1,1,2
2017.05.06,03:15:00,03:30:00,Arnulf,1,0,1
2017.05.06,03:30:00,03:45:00,Arnulf,0,0,0
2017.05.06,03:45:00,04:00:00,Arnulf,0,0,0
2017.05.06,04:00:00,04:15:00,Arnulf,0,0,0
2017.05.06,04:15:00,04:30:00,Arnulf,0,0,0
2017.05.06,04:30:00,04:45:00,Arnulf,0,1,1
2017.05.06,04:45:00,05:00:00,Arnulf,0,0,0
2017.05.06,05:00:00,05:15:00,Arnulf,0,0,0
2017.05.06,05:15:00,05:30:00,Arnulf,0,0,0
2017.05.06,05:30:00,05:45:00,Arnulf,4,0,4
2017.05.06,05:45:00,06:00:00,Arnulf,1,0,1
2017.05.06,06:00:00,06:15:00,Arnulf,0,0,0
2017.05.06,06:15:00,06:30:00,Arnulf,2,0,2
2017.05.06,06:30:00,06:45:00,Arnulf,3,0,3
2017.05.06,06:45:00,07:00:00,Arnulf,2,0,2
2017.05.06,07:00:00,07:15:00,Arnulf,4,0,4
2017.05.06,07:15:00,07:30:00,Arnulf,5,1,6
2017.05.06,07:30:00,07:45:00,Arnulf,6,0,6
2017.05.06,07:45:00,08:00:00,Arnulf,5,0,5
2017.05.06,08:00:00,08:15:00,Arnulf,9,0,9
2017.05.06,08:15:00,08:30:00,Arnulf,8,0,8
2017.05.06,08:30:00,08:45:00,Arnulf,24,0,24
2017.05.06,08:45:00,09:00:00,Arnulf,14,0,14
2017.05.06,09:00:00,09:15:00,Arnulf,8,0,8
2017.05.06,09:15:00,09:30:00,Arnulf,13,2,15
2017.05.06,09:30:00,09:45:00,Arnulf,18,0,18
2017.05.06,09:45:00,10:00:00,Arnulf,16,0,16
2017.05.06,10:00:00,10:15:00,Arnulf,20,0,20
2017.05.06,10:15:00,10:30:00,Arnulf,18,0,18
2017.05.06,10:30:00,10:45:00,Arnulf,11,0,11
2017.05.06,10:45:00,11:00:00,Arnulf,27,0,27
2017.05.06,11:00:00,11:15:00,Arnulf,23,0,23
2017.05.06,11:15:00,11:30:00,Arnulf,22,0,22
2017.05.06,11:30:00,11:45:00,Arnulf,19,1,20
2017.05.06,11:45:00,12:00:00,Arnulf,35,0,35
2017.05.06,12:00:00,12:15:00,Arnulf,19,0,19
2017.05.06,12:15:00,12:30:00,Arnulf,21,0,21
2017.05.06,12:30:00,12:45:00,Arnulf,24,1,25
2017.05.06,12:45:00,13:00:00,Arnulf,19,0,19
2017.05.06,13:00:00,13:15:00,Arnulf,15,1,16
2017.05.06,13:15:00,13:30:00,Arnulf,21,0,21
2017.05.06,13:30:00,13:45:00,Arnulf,20,0,20
2017.05.06,13:45:00,14:00:00,Arnulf,25,0,25
2017.05.06,14:00:00,14:15:00,Arnulf,23,1,24
2017.05.06,14:15:00,14:30:00,Arnulf,16,3,19
2017.05.06,14:30:00,14:45:00,Arnulf,17,1,18
2017.05.06,14:45:00,15:00:00,Arnulf,18,0,18
2017.05.06,15:00:00,15:15:00,Arnulf,26,0,26
2017.05.06,15:15:00,15:30:00,Arnulf,22,1,23
2017.05.06,15:30:00,15:45:00,Arnulf,31,1,32
2017.05.06,15:45:00,16:00:00,Arnulf,22,0,22
2017.05.06,16:00:00,16:15:00,Arnulf,20,3,23
2017.05.06,16:15:00,16:30:00,Arnulf,9,1,10
2017.05.06,16:30:00,16:45:00,Arnulf,16,4,20
2017.05.06,16:45:00,17:00:00,Arnulf,18,0,18
2017.05.06,17:00:00,17:15:00,Arnulf,23,1,24
2017.05.06,17:15:00,17:30:00,Arnulf,24,1,25
2017.05.06,17:30:00,17:45:00,Arnulf,2,0,2
2017.05.06,17:45:00,18:00:00,Arnulf,24,1,25
2017.05.06,18:00:00,18:15:00,Arnulf,13,0,13
2017.05.06,18:15:00,18:30:00,Arnulf,23,1,24
2017.05.06,18:30:00,18:45:00,Arnulf,31,0,31
2017.05.06,18:45:00,19:00:00,Arnulf,16,0,16
2017.05.06,19:00:00,19:15:00,Arnulf,15,0,15